Location: Cahas Mountain Overlook
(37.0833°N, 80.1000°W)
Time: 10:23:23
(UTC-04:00)

A-11 Canister half - Pass Details

Date: 15 February 2026
Orbit: 1524 x 1683 km, 47.3° (Epoch: 16 March)

Event Time Altitude Azimuth Distance (km) Brightness Sun altitude
Rises 19:03:01 0° 267° (W) 4,696 13.6 -13.1°
Reaches altitude 10° 19:06:15 10° 273° (W) 3,701 12.4 -13.7°
Maximum altitude 19:15:12 49° 347° (NNW) 1,885 9.5 -15.5°
Enters shadow 19:22:31 16° 57° (ENE) 3,215 10.2 -16.9°
